ANA478 ROAH-RJTT

Flight info

Callsign ANA478
Flight time N/A
Altitude 35000
Route AMAMI Y574 SHIBK Y57 SUKBO Y571 BILLY Y21 AKSEL
Aircraft B738/M-SDE2E3FGHIRWXY/LB1

Departure

Time 2026-04-29 04:33
Airport Naha International Airport (ROAH)

Arrival

Time N/A
Airport Tokyo Haneda International Airport (RJTT)
Time Latitude Longitude Altitude Speed Heading
2026-04-29 04:15 26.20772 127.64826 20 ft 0 kts 88°
2026-04-29 04:28 26.20772 127.64812 20 ft 4 kts 85°
2026-04-29 04:28 26.20768 127.64782 20 ft 4 kts 76°
2026-04-29 04:28 26.20759 127.64755 18 ft 4 kts 54°
2026-04-29 04:29 26.20742 127.64739 16 ft 3 kts 359°
2026-04-29 04:29 26.20740 127.64739 16 ft 1 kts 357°
2026-04-29 04:31 26.20743 127.64739 16 ft 2 kts 358°
2026-04-29 04:31 26.20771 127.64738 18 ft 7 kts 359°
2026-04-29 04:31 26.20838 127.64735 16 ft 12 kts 358°
2026-04-29 04:31 26.20933 127.64729 17 ft 11 kts 351°
2026-04-29 04:32 26.20981 127.64664 15 ft 12 kts 268°
2026-04-29 04:32 26.20963 127.64571 17 ft 12 kts 241°
2026-04-29 04:32 26.20895 127.64525 17 ft 12 kts 181°
2026-04-29 04:32 26.20877 127.64526 17 ft 0 kts 177°
2026-04-29 04:33 26.20862 127.64527 19 ft 10 kts 177°
2026-04-29 04:33 26.20507 127.64543 18 ft 95 kts 177°
2026-04-29 04:33 26.19590 127.64586 31 ft 164 kts 174°
2026-04-29 04:33 26.18394 127.64609 783 ft 174 kts 177°
2026-04-29 04:34 26.17197 127.64650 1889 ft 174 kts 174°
2026-04-29 04:34 26.15920 127.64738 2632 ft 196 kts 174°
2026-04-29 04:34 26.14505 127.64873 3223 ft 215 kts 176°
2026-04-29 04:34 26.12917 127.64939 3694 ft 234 kts 179°
2026-04-29 04:35 26.11253 127.65010 4372 ft 249 kts 178°
2026-04-29 04:35 26.09451 127.65106 5130 ft 264 kts 179°
2026-04-29 04:35 26.07618 127.65178 6252 ft 265 kts 180°
2026-04-29 04:35 26.05760 127.65251 7236 ft 270 kts 180°
2026-04-29 04:36 26.03863 127.65474 8105 ft 282 kts 165°
2026-04-29 04:36 26.02159 127.66613 9069 ft 294 kts 137°
2026-04-29 04:36 26.01093 127.68579 9981 ft 306 kts 108°
2026-04-29 04:36 26.00894 127.70978 10598 ft 324 kts 90°
2026-04-29 04:37 26.01098 127.73594 10795 ft 356 kts 77°
2026-04-29 04:37 26.02201 127.76154 10981 ft 382 kts 52°
2026-04-29 04:37 26.03960 127.78475 11193 ft 403 kts 47°
2026-04-29 04:37 26.05842 127.80834 11693 ft 412 kts 48°
2026-04-29 04:38 26.07734 127.83257 12342 ft 417 kts 49°
2026-04-29 04:38 26.09590 127.85711 12988 ft 422 kts 50°
2026-04-29 04:38 26.11457 127.88242 13720 ft 424 kts 50°
2026-04-29 04:38 26.13316 127.90792 14450 ft 427 kts 50°
2026-04-29 04:39 26.15197 127.93377 15118 ft 431 kts 50°
2026-04-29 04:39 26.17169 127.95902 15777 ft 434 kts 42°
2026-04-29 04:39 26.19646 127.97815 16438 ft 435 kts 28°
2026-04-29 04:39 26.22270 127.99518 17076 ft 438 kts 28°
2026-04-29 04:40 26.24920 128.01237 17640 ft 443 kts 28°
2026-04-29 04:40 26.27580 128.02988 18231 ft 446 kts 29°
2026-04-29 04:40 26.30260 128.04773 18783 ft 450 kts 30°
2026-04-29 04:40 26.32951 128.06583 19280 ft 454 kts 30°
2026-04-29 04:41 26.35671 128.08420 19737 ft 459 kts 30°
2026-04-29 04:41 26.38410 128.10277 20222 ft 463 kts 30°
2026-04-29 04:41 26.41174 128.12152 20676 ft 466 kts 30°
2026-04-29 04:41 26.43950 128.14038 21115 ft 469 kts 30°
2026-04-29 04:42 26.46748 128.15937 21515 ft 473 kts 30°
2026-04-29 04:42 26.49577 128.17858 21911 ft 476 kts 30°
2026-04-29 04:42 26.52412 128.19785 22270 ft 480 kts 30°
2026-04-29 04:42 26.55267 128.21727 22635 ft 482 kts 30°
2026-04-29 04:43 26.58140 128.23682 22996 ft 485 kts 30°
2026-04-29 04:43 26.61025 128.25648 23347 ft 487 kts 30°
2026-04-29 04:43 26.63929 128.27625 23665 ft 490 kts 29°
2026-04-29 04:43 26.66850 128.29615 23976 ft 492 kts 30°
2026-04-29 04:44 26.69595 128.31923 24240 ft 498 kts 44°
2026-04-29 04:44 26.71800 128.34913 24568 ft 500 kts 52°
2026-04-29 04:44 26.73909 128.38018 24870 ft 502 kts 52°
2026-04-29 04:44 26.76028 128.41130 25105 ft 504 kts 52°
2026-04-29 04:45 26.78181 128.44244 25323 ft 507 kts 51°
2026-04-29 04:45 26.80336 128.47314 25577 ft 509 kts 51°
2026-04-29 04:45 26.82538 128.50420 25847 ft 510 kts 51°
2026-04-29 04:45 26.84749 128.53525 26090 ft 511 kts 51°
2026-04-29 04:46 26.86970 128.56653 26333 ft 513 kts 51°
2026-04-29 04:46 26.89224 128.59833 26557 ft 515 kts 51°
2026-04-29 04:46 26.91422 128.62937 26779 ft 516 kts 50°
2026-04-29 04:46 26.93875 128.65874 26966 ft 516 kts 37°
2026-04-29 04:47 26.96917 128.67973 27198 ft 513 kts 25°
2026-04-29 04:47 27.00102 128.69801 27455 ft 514 kts 25°
2026-04-29 04:47 27.03283 128.71650 27709 ft 515 kts 25°
2026-04-29 04:47 27.06447 128.73518 28013 ft 514 kts 26°
2026-04-29 04:48 27.09604 128.75408 28349 ft 513 kts 26°
2026-04-29 04:48 27.12737 128.77303 28701 ft 512 kts 26°
2026-04-29 04:48 27.15867 128.79209 29019 ft 512 kts 26°
2026-04-29 04:48 27.18994 128.81116 29356 ft 511 kts 26°
2026-04-29 04:49 27.22117 128.83022 29723 ft 510 kts 26°
2026-04-29 04:49 27.25231 128.84921 30112 ft 509 kts 26°
2026-04-29 04:49 27.28342 128.86817 30496 ft 508 kts 26°
2026-04-29 04:49 27.31445 128.88708 30866 ft 507 kts 26°
2026-04-29 04:50 27.34548 128.90599 31265 ft 506 kts 26°
2026-04-29 04:50 27.37635 128.92482 31676 ft 504 kts 26°
2026-04-29 04:50 27.40675 128.94337 32068 ft 503 kts 26°
2026-04-29 04:50 27.43753 128.96217 32447 ft 503 kts 25°
2026-04-29 04:51 27.46824 128.98096 32800 ft 503 kts 26°
2026-04-29 04:51 27.49895 128.99976 33214 ft 502 kts 25°
2026-04-29 04:51 27.52954 129.01849 33667 ft 499 kts 25°
2026-04-29 04:51 27.56002 129.03715 34099 ft 497 kts 25°
2026-04-29 04:52 27.59035 129.05573 34482 ft 496 kts 25°
2026-04-29 04:52 27.62067 129.07433 34896 ft 495 kts 25°
2026-04-29 04:52 27.65093 129.09290 35040 ft 497 kts 25°
2026-04-29 04:53 27.71154 129.13010 35043 ft 495 kts 25°
2026-04-29 04:53 27.77187 129.16725 35053 ft 494 kts 25°
2026-04-29 04:54 27.83228 129.20447 35047 ft 493 kts 25°
2026-04-29 04:54 27.89242 129.24157 35048 ft 493 kts 25°
2026-04-29 04:55 27.95253 129.27868 35046 ft 492 kts 25°
2026-04-29 04:55 28.01263 129.31584 35047 ft 492 kts 25°
2026-04-29 04:56 28.07263 129.35298 35046 ft 492 kts 25°
2026-04-29 04:56 28.13234 129.38998 35043 ft 492 kts 25°
2026-04-29 04:57 28.19253 129.42731 35048 ft 494 kts 25°
2026-04-29 04:57 28.25290 129.46487 35047 ft 495 kts 25°
2026-04-29 04:58 28.30363 129.49646 35052 ft 497 kts 25°
2026-04-29 04:58 28.36392 129.53402 35044 ft 498 kts 25°
2026-04-29 04:59 28.42102 129.57838 35034 ft 506 kts 47°
2026-04-29 04:59 28.44073 129.61159 35061 ft 509 kts 62°
2026-04-29 04:59 28.45253 129.64943 35043 ft 510 kts 79°
2026-04-29 05:00 28.46138 129.72945 35051 ft 511 kts 85°
2026-04-29 05:00 28.46875 129.80978 35037 ft 511 kts 84°
2026-04-29 05:01 28.47694 129.88998 35039 ft 511 kts 83°
2026-04-29 05:01 28.48559 129.97012 35042 ft 510 kts 83°
2026-04-29 05:02 28.49412 130.05015 35048 ft 510 kts 83°
2026-04-29 05:02 28.50667 130.12920 35040 ft 509 kts 71°
2026-04-29 05:03 28.53690 130.20139 35041 ft 505 kts 54°
2026-04-29 05:03 28.57734 130.26659 35048 ft 505 kts 52°
2026-04-29 05:04 28.61788 130.33183 35047 ft 505 kts 53°
2026-04-29 05:04 28.65783 130.39763 35045 ft 505 kts 53°
2026-04-29 05:05 28.69756 130.46357 35045 ft 505 kts 53°
2026-04-29 05:05 28.73715 130.52921 35050 ft 505 kts 53°
2026-04-29 05:06 28.77692 130.59528 35049 ft 506 kts 53°
2026-04-29 05:06 28.81670 130.66152 35057 ft 506 kts 53°
2026-04-29 05:07 28.85653 130.72792 35054 ft 508 kts 53°
2026-04-29 05:07 28.89636 130.79442 35046 ft 507 kts 53°
2026-04-29 05:08 28.93616 130.86101 35043 ft 508 kts 53°
2026-04-29 05:08 28.97592 130.92759 35054 ft 508 kts 53°
2026-04-29 05:09 29.01569 130.99437 35051 ft 508 kts 53°
2026-04-29 05:09 29.05542 131.06119 35049 ft 508 kts 54°
2026-04-29 05:10 29.09513 131.12801 35049 ft 508 kts 54°
2026-04-29 05:10 29.13482 131.19483 35044 ft 508 kts 53°
2026-04-29 05:11 29.17440 131.26172 35047 ft 508 kts 54°
2026-04-29 05:11 29.21397 131.32873 35047 ft 508 kts 54°
2026-04-29 05:12 29.25350 131.39571 35037 ft 508 kts 54°
2026-04-29 05:12 29.29308 131.46285 35038 ft 509 kts 54°
2026-04-29 05:13 29.33233 131.52962 35037 ft 509 kts 54°
2026-04-29 05:13 29.37181 131.59686 35036 ft 508 kts 54°
2026-04-29 05:14 29.41133 131.66423 35042 ft 508 kts 54°
2026-04-29 05:14 29.45074 131.73164 35045 ft 508 kts 54°
2026-04-29 05:15 29.49011 131.79907 35039 ft 509 kts 54°
2026-04-29 05:15 29.52951 131.86668 35038 ft 510 kts 54°
2026-04-29 05:16 29.56900 131.93451 35038 ft 510 kts 54°
2026-04-29 05:16 29.60841 132.00235 35039 ft 510 kts 54°
2026-04-29 05:17 29.64753 132.06981 35038 ft 509 kts 53°
2026-04-29 05:17 29.69003 132.13460 35044 ft 507 kts 47°
2026-04-29 05:18 29.73537 132.19672 35040 ft 508 kts 47°
2026-04-29 05:18 29.78082 132.25896 35035 ft 507 kts 47°
2026-04-29 05:19 29.82578 132.32163 35040 ft 507 kts 47°
2026-04-29 05:19 29.87043 132.38456 35035 ft 507 kts 47°
2026-04-29 05:20 29.91496 132.44744 35039 ft 506 kts 48°
2026-04-29 05:20 29.95948 132.51038 35033 ft 506 kts 48°
2026-04-29 05:21 30.00396 132.57331 35039 ft 506 kts 48°
2026-04-29 05:21 30.04815 132.63589 35031 ft 506 kts 47°
2026-04-29 05:22 30.09254 132.69891 35042 ft 505 kts 47°
2026-04-29 05:22 30.13692 132.76202 35030 ft 506 kts 47°
2026-04-29 05:23 30.18136 132.82518 35032 ft 507 kts 47°
2026-04-29 05:23 30.22590 132.88868 35030 ft 509 kts 47°
2026-04-29 05:24 30.27054 132.95235 35027 ft 510 kts 47°
2026-04-29 05:24 30.31512 133.01615 35029 ft 510 kts 47°
2026-04-29 05:25 30.35970 133.08008 35027 ft 510 kts 47°
2026-04-29 05:25 30.40427 133.14404 35026 ft 510 kts 47°
2026-04-29 05:26 30.44888 133.20818 35028 ft 509 kts 47°
2026-04-29 05:26 30.49297 133.27164 35019 ft 509 kts 48°
2026-04-29 05:27 30.53737 133.33563 35005 ft 508 kts 48°
2026-04-29 05:27 30.60365 133.43139 35011 ft 507 kts 48°
2026-04-29 05:28 30.64776 133.49528 35019 ft 506 kts 48°
2026-04-29 05:28 30.69175 133.55899 35014 ft 505 kts 48°
2026-04-29 05:29 30.73562 133.62277 35020 ft 506 kts 48°
2026-04-29 05:29 30.77958 133.68677 35018 ft 506 kts 48°
2026-04-29 05:30 30.82353 133.75075 35025 ft 507 kts 48°
2026-04-29 05:30 30.86745 133.81480 35030 ft 507 kts 48°
2026-04-29 05:31 30.91155 133.87925 35029 ft 508 kts 48°
2026-04-29 05:31 30.95560 133.94374 35011 ft 510 kts 48°
2026-04-29 05:32 30.99956 134.00823 34998 ft 511 kts 48°
2026-04-29 05:32 31.04375 134.07317 34998 ft 511 kts 48°
2026-04-29 05:33 31.08793 134.13820 35000 ft 511 kts 48°
2026-04-29 05:33 31.13208 134.20325 35005 ft 511 kts 48°
2026-04-29 05:34 31.17612 134.26830 35000 ft 511 kts 48°
2026-04-29 05:34 31.22015 134.33342 35004 ft 511 kts 48°
2026-04-29 05:35 31.26419 134.39868 34997 ft 511 kts 48°
2026-04-29 05:35 31.30822 134.46396 34997 ft 511 kts 48°
2026-04-29 05:36 31.35223 134.52939 34987 ft 512 kts 48°
2026-04-29 05:36 31.39625 134.59494 35000 ft 512 kts 48°
2026-04-29 05:37 31.44021 134.66052 34987 ft 513 kts 48°
2026-04-29 05:37 31.48420 134.72625 34986 ft 513 kts 48°
2026-04-29 05:38 31.52817 134.79206 34990 ft 513 kts 48°
2026-04-29 05:38 31.57213 134.85794 35004 ft 513 kts 48°
2026-04-29 05:39 31.61603 134.92391 34985 ft 513 kts 48°
2026-04-29 05:39 31.65970 134.98963 34993 ft 513 kts 48°
2026-04-29 05:40 31.70359 135.05573 34994 ft 513 kts 48°
2026-04-29 05:40 31.74907 135.11994 35003 ft 510 kts 44°
2026-04-29 05:41 31.79685 135.18143 35002 ft 509 kts 43°
2026-04-29 05:41 31.84469 135.24272 34988 ft 510 kts 43°
2026-04-29 05:42 31.89238 135.30468 34986 ft 510 kts 43°
2026-04-29 05:42 31.93983 135.36676 34984 ft 511 kts 43°
2026-04-29 05:43 31.98718 135.42903 35012 ft 510 kts 43°
2026-04-29 05:43 32.03454 135.49133 35005 ft 511 kts 43°
2026-04-29 05:44 32.08196 135.55376 35018 ft 511 kts 43°
2026-04-29 05:44 32.12149 135.60587 35007 ft 512 kts 43°
2026-04-29 05:45 32.16907 135.66871 35002 ft 513 kts 43°
2026-04-29 05:45 32.21665 135.73165 35000 ft 515 kts 43°
2026-04-29 05:46 32.26424 135.79475 35008 ft 515 kts 43°
2026-04-29 05:46 32.31182 135.85794 35000 ft 514 kts 43°
2026-04-29 05:47 32.35933 135.92113 34999 ft 514 kts 43°
2026-04-29 05:47 32.40653 135.98401 34996 ft 514 kts 43°
2026-04-29 05:48 32.45402 136.04727 35005 ft 513 kts 43°
2026-04-29 05:48 32.50146 136.11033 35000 ft 512 kts 43°
2026-04-29 05:49 32.54888 136.17340 35004 ft 512 kts 43°
2026-04-29 05:49 32.59617 136.23649 34995 ft 512 kts 43°
2026-04-29 05:50 32.64355 136.29978 35000 ft 513 kts 43°
2026-04-29 05:50 32.69083 136.36309 34992 ft 513 kts 43°
2026-04-29 05:51 32.73813 136.42651 35000 ft 513 kts 43°
2026-04-29 05:51 32.78547 136.49010 35001 ft 514 kts 43°
2026-04-29 05:52 32.83277 136.55378 34995 ft 514 kts 43°
2026-04-29 05:52 32.88017 136.61768 34997 ft 515 kts 43°
2026-04-29 05:53 32.92742 136.68156 35005 ft 515 kts 43°
2026-04-29 05:53 32.97472 136.74571 34992 ft 516 kts 43°
2026-04-29 05:54 33.02206 136.81009 35005 ft 516 kts 43°
2026-04-29 05:54 33.06928 136.87443 34973 ft 517 kts 43°
2026-04-29 05:55 33.11655 136.93893 34973 ft 517 kts 44°
2026-04-29 05:55 33.13226 136.96040 34972 ft 517 kts 44°